Helicity
127 134 141 141 119 87 108 124 119 112 107 150 181 194 235 213 153 92 100 107 73 103 173 155 153 128 129 130 130 101 170 132 146 151 134 109 127 106 148 136 100 108 117 121 184 205 160 168 304 212 114 178 120 141
159 142 140 124 90 115 128 118 121 112 121 150 179 209 227 217 152 101 145 158 128 115 123 151 149 143 121 86 121 145 100 85 101 159 142 136 156 154 169 156 169 163 131 121 128 116 116 67 121 123 167 193 170 206
112 131 141 135 135 148 116 112 119 119 130 137 165 215 228 187 137 96 128 140 128 137 159 159 194 199 190 139 95 138 139 104 110 105 117 132 167 154 161 128 161 120 151 172 189 117 107 108 78 158 184 204 225 282
104 139 159 163 187 160 102 104 115 124 135 150 171 197 192 169 140 113 122 139 103 110 120 131 163 166 207 171 117 112 111 172 160 151 148 143 155 112 141 152 156 114 152 133 164 132 151 142 159 194 242 273 328 357
114 148 152 172 193 96 106 108 111 116 125 140 157 190 174 159 143 128 123 152 103 87 69 119 138 169 198 150 161 168 184 163 154 163 154 117 123 163 179 196 178 178 203 217 188 116 149 134 143 217 308 321 319 326
134 143 149 149 162 85 103 102 107 111 119 123 147 162 150 111 112 117 119 120 158 107 96 103 100 146 185 176 207 210 172 152 154 132 122 120 152 171 157 160 97 148 143 145 133 108 152 167 175 227 261 298 310 349
161 164 166 162 156 113 99 107 108 123 133 133 148 159 127 102 86 94 68 84 148 101 99 111 113 135 129 145 148 160 171 156 155 151 150 164 188 200 200 188 199 148 124 115 175 236 217 189 167 242 307 331 399 441
255 198 163 164 151 133 120 116 117 123 135 148 167 144 157 133 89 126 153 167 150 114 125 116 114 126 147 140 146 149 147 159 179 176 183 155 193 215 186 178 129 102 111 120 148 197 158 212 282 377 417 472 541 377
354 256 207 177 140 114 110 107 123 139 155 177 183 151 155 151 138 126 197 158 147 127 119 140 126 84 132 145 144 138 149 159 165 186 176 184 209 206 151 139 133 134 112 107 173 230 264 313 377 473 541 497 248 175
382 286 230 179 148 140 129 127 129 142 164 190 195 181 166 157 159 169 152 147 170 188 202 170 158 148 133 134 142 137 147 141 148 128 164 193 244 191 151 135 126 117 116 167 253 277 379 473 571 685 406 212 165 159
357 415 333 248 177 146 128 134 136 139 192 196 192 176 147 186 159 173 165 175 179 182 182 197 195 187 181 160 147 142 142 145 132 141 183 203 201 201 209 199 184 200 233 286 322 416 463 524 447 277 203 189 154 94
120 204 404 332 234 195 179 174 186 136 141 140 117 144 162 170 166 166 203 206 196 132 184 147 143 166 172 154 145 137 173 172 146 184 218 204 232 228 258 314 366 399 444 478 468 448 446 308 143 152 115 65 37 46
118 146 164 176 222 216 193 191 214 205 186 177 171 164 152 160 166 145 169 183 174 221 210 144 141 133 134 152 180 178 158 192 216 214 240 261 226 257 250 259 295 226 140 82 98 76 72 59 58 44 28 42 60 84
106 129 156 173 168 159 138 109 115 162 199 240 205 159 144 165 200 240 238 198 172 144 122 116 116 100 105 143 137 157 167 194 215 268 305 258 275 271 270 220 181 152 110 51 37 29 32 54 65 51 53 62 67 74
120 133 153 216 190 152 124 107 82 91 91 138 167 205 208 175 145 108 124 141 146 128 133 129 125 116 139 145 181 209 241 293 323 342 300 254 279 218 207 177 120 125 93 76 61 61 45 35 39 50 64 72 80 84
72 92 178 189 165 136 115 91 92 82 90 90 106 101 92 131 142 131 128 137 108 111 120 133 151 164 171 200 252 232 264 312 240 270 258 207 179 107 103 69 53 74 77 56 50 47 48 56 55 58 71 74 80 84
42 45 131 122 130 91 89 60 85 109 99 119 123 135 113 134 115 111 105 110 92 122 161 145 173 148 153 181 237 261 316 300 252 158 101 69 53 39 26 11 12 36 53 52 50 61 66 71 80 83 78 81 94 104
29 46 67 95 82 60 66 52 38 45 84 86 108 111 117 124 113 117 108 105 99 100 110 140 118 201 199 194 187 117 72 14 -15 -31 -18 -11 -4 25 36 50 58 64 67 61 55 52 59 69 72 87 98 113 110 108
25 43 81 93 61 17 26 40 39 46 52 57 72 79 78 81 81 65 59 68 57 56 72 90 119 113 105 97 96 70 47 36 34 31 46 61 79 102 112 110 101 99 93 97 103 102 98 98 94 100 97 103 109 131
41 83 110 81 71 41 42 46 49 44 60 54 74 87 81 73 61 58 54 63 76 87 107 102 81 79 77 73 68 71 65 50 75 108 125 153 149 154 160 146 137 126 118 122 104 95 88 83 96 104 112 121 120 131
42 57 66 58 83 86 62 63 76 60 52 80 72 92 99 103 105 104 93 85 119 127 124 80 91 93 106 113 94 98 116 103 112 108 127 168 181 167 165 154 134 116 93 87 96 94 115 108 106 107 110 115 127 128
44 40 33 46 71 90 90 111 100 101 116 91 109 105 126 131 128 114 106 117 127 117 116 110 114 118 153 154 155 170 141 180 190 203 212 176 162 147 130 118 105 105 112 120 109 106 105 105 107 108 104 110 110 114
46 50 58 75 97 130 113 127 151 142 153 140 143 150 135 127 111 101 128 110 114 116 112 127 143 193 206 210 240 267 237 194 202 195 176 149 136 133 127 129 119 115 113 108 105 102 100 102 101 102 98 103 105 120
50 76 92 119 129 133 115 140 123 138 144 139 129 126 109 102 88 122 124 104 107 111 131 150 143 193 219 234 238 242 231 183 151 160 140 114 128 151 146 154 141 135 133 112 102 96 92 88 85 90 98 112 126 129
77 82 92 101 89 120 121 125 131 143 127 125 130 107 76 80 111 93 86 92 124 147 148 172 220 197 180 175 172 180 185 158 135 133 150 136 132 153 176 168 151 152 125 110 104 83 69 73 79 80 81 89 101 102
38 37 54 48 65 80 53 71 63 63 82 88 66 71 80 88 86 80 81 104 135 140 130 136 134 147 174 162 145 140 134 121 103 124 138 138 142 123 133 131 118 107 99 80 75 83 84 72 67 63 65 82 90 96
21 22 32 41 40 44 33 42 45 49 34 42 56 87 81 76 71 107 96 115 114 135 129 111 109 129 127 127 127 125 116 112 96 124 123 129 130 110 76 69 77 58 77 82 76 65 63 64 61 71 86 102 98 78
53 53 46 23 45 62 57 52 41 39 48 55 66 57 48 50 67 73 76 93 113 115 121 127 130 138 156 153 135 138 147 117 143 145 135 120 97 74 69 77 92 85 84 79 70 66 81 81 88 89 111 119 120 145
-6 -7 -15 -1 1 12 26 19 20 21 25 28 52 54 50 60 68 84 107 112 120 123 129 136 160 153 167 160 164 159 163 190 207 185 155 129 128 113 110 86 64 63 70 72 58 64 68 77 84 109 120 171 156 135
24 16 21 13 10 11 17 11 12 19 35 47 57 62 73 88 115 124 119 135 150 167 168 167 152 157 155 166 173 181 158 118 83 88 100 92 91 87 69 49 48 57 59 53 58 77 75 110 110 113 136 145 134 114
-2 15 12 18 31 28 12 13 37 60 75 86 97 110 116 112 133 159 157 135 140 147 159 175 183 167 172 178 158 138 110 74 85 79 67 62 64 68 63 59 58 59 55 60 67 64 65 68 78 74 85 92 90 85
36 46 51 49 50 51 74 74 74 86 95 108 121 125 123 138 144 142 126 131 149 170 146 132 150 125 81 72 60 50 56 49 47 46 57 72 75 67 61 53 53 63 73 68 64 67 75 90 85 82 79 77 73 67
67 79 89 82 87 91 100 106 117 101 111 104 117 136 154 144 144 117 105 114 100 86 93 82 74 64 56 60 61 48 39 42 52 63 74 80 73 65 61 58 62 76 77 70 72 80 87 92 90 83 74 68 62 57
Wind_Speed
55 51 46 44 41 36 29 29 26 22 17 13 14 19 25 33 37 33 31 28 31 33 35 34 33 33 29 28 29 23 27 34 32 34 36 36 39 33 38 37 37 34 34 38 38 46 60 28 27 36 40 36 31 32
46 44 44 44 37 32 31 29 26 20 16 16 15 16 20 27 30 31 32 26 21 25 29 25 22 25 32 28 25 25 31 28 25 32 35 34 39 37 39 47 35 43 34 42 32 42 44 28 37 34 37 43 39 35
40 42 42 42 35 33 32 28 25 18 15 12 16 16 16 17 22 24 25 27 24 27 28 29 31 32 30 32 28 31 35 27 29 30 30 36 45 34 43 45 42 40 35 45 47 50 48 44 44 48 43 44 39 33
38 40 40 37 34 35 32 28 25 18 15 12 13 13 13 12 14 18 22 26 22 24 33 36 33 30 37 34 29 30 22 24 23 32 38 40 46 33 45 47 43 42 36 48 55 59 59 53 46 46 42 37 34 32
35 37 38 36 38 36 32 29 24 19 17 14 13 14 11 7 4 5 12 21 24 29 34 32 31 34 37 31 27 24 19 27 33 38 41 45 41 42 47 48 50 43 50 56 64 56 55 54 43 37 36 36 30 29
34 36 38 41 44 34 32 29 24 19 16 16 16 17 17 17 21 22 28 28 29 27 30 35 34 35 35 29 27 29 31 33 36 38 43 42 41 43 52 55 49 45 45 47 58 52 50 54 44 33 31 28 29 29
28 30 35 45 44 33 30 27 24 21 18 16 16 17 19 17 21 26 26 31 34 28 32 36 39 36 34 32 34 36 36 38 40 41 45 46 45 42 51 64 59 53 53 52 46 46 52 41 44 30 31 30 25 25
22 23 25 35 39 34 29 26 24 21 19 18 17 14 11 10 13 26 30 33 30 26 32 37 39 36 35 36 38 39 38 39 43 43 43 47 46 47 59 58 60 58 57 52 46 46 49 37 35 32 28 24 24 24
15 17 18 22 31 34 28 24 23 22 21 22 22 23 28 32 33 33 40 34 30 32 37 39 40 44 35 35 36 37 39 45 44 46 48 45 50 54 56 62 61 57 55 57 45 46 39 36 31 26 21 24 22 27
7 8 14 18 23 24 25 27 26 22 22 25 29 35 38 37 39 39 37 40 41 44 41 44 36 41 37 37 39 40 42 44 53 48 42 50 59 59 63 65 60 59 56 44 42 40 34 33 29 28 24 25 26 33
5 4 8 13 20 26 25 21 17 19 26 32 36 39 33 36 33 38 41 42 43 45 44 42 41 42 38 42 40 40 43 44 55 51 47 55 60 56 61 58 53 49 43 39 37 32 30 28 25 23 25 34 39 40
11 9 4 2 9 15 16 20 26 29 28 28 24 24 30 36 37 40 42 40 41 44 41 39 38 37 37 36 40 39 46 44 55 40 48 56 53 51 50 49 48 44 41 39 37 32 32 28 26 33 38 39 43 47
13 15 15 9 7 8 9 10 10 12 24 27 31 33 39 43 44 43 44 44 42 40 41 37 38 37 35 36 37 38 43 47 40 47 52 53 48 44 43 42 42 42 42 38 36 33 34 35 36 39 43 46 48 53
12 15 17 18 16 14 13 16 17 23 26 32 36 37 42 39 39 41 40 39 38 38 36 37 37 37 36 36 36 40 40 40 48 52 54 48 47 40 40 40 39 41 39 39 39 40 41 44 46 48 50 52 55 59
14 16 18 23 24 22 20 18 17 21 26 29 29 32 34 30 30 30 31 31 35 35 36 36 38 38 40 40 39 40 44 48 49 51 49 46 43 37 36 38 41 42 43 44 46 48 50 50 53 57 58 59 60 60
18 18 24 31 30 28 26 22 22 23 26 28 29 30 26 28 30 31 31 33 35 34 34 37 40 42 44 42 43 46 47 52 48 42 41 39 40 35 34 34 38 44 49 52 52 54 56 59 61 62 61 62 62 62
18 20 30 32 32 29 26 21 23 27 28 33 33 27 28 26 27 30 31 34 32 35 40 40 45 46 41 46 48 46 50 44 39 38 37 36 38 35 34 37 40 46 50 53 56 59 62 62 63 65 67 66 66 65
20 26 29 33 31 25 23 25 25 28 31 30 31 30 30 29 28 32 33 35 36 37 38 43 38 45 48 51 48 39 36 32 32 36 40 38 39 37 36 41 47 51 56 60 61 62 64 66 68 69 68 71 72 74
25 27 30 32 30 25 26 28 29 28 29 26 23 25 26 26 28 28 29 32 32 32 33 39 44 46 46 41 40 38 39 37 37 35 35 35 37 40 45 50 54 58 61 63 64 66 67 67 69 72 76 79 84 84
31 34 34 33 31 27 28 30 29 28 27 26 25 25 27 28 27 28 30 33 34 36 38 40 41 37 36 35 34 32 31 29 31 34 37 41 43 44 49 52 55 57 60 64 66 69 73 76 76 81 85 87 90 90
36 40 40 35 34 31 30 33 31 30 26 29 24 29 31 31 31 32 32 33 36 36 39 36 35 33 30 30 31 32 34 36 39 39 39 42 44 46 51 55 58 61 66 72 76 78 79 83 85 86 87 88 86 86
40 42 39 38 36 37 35 37 35 35 34 31 31 33 35 36 36 34 35 35 36 35 35 35 34 29 30 34 35 36 33 33 36 37 40 40 48 54 58 60 64 68 70 73 76 79 81 82 85 88 88 90 89 87
43 43 40 41 40 41 41 38 37 37 39 34 34 38 39 38 35 32 37 34 32 34 33 32 32 27 26 29 32 35 38 37 39 42 44 45 48 52 56 58 63 70 74 76 76 79 83 84 86 89 88 90 90 88
42 42 44 44 42 43 40 40 38 37 35 36 37 40 38 35 32 34 38 32 30 32 32 32 25 26 29 32 36 40 43 42 40 44 49 51 55 60 59 62 63 68 74 77 79 83 85 89 90 91 92 92 90 89
44 44 42 46 41 44 44 44 43 42 43 39 39 40 36 29 34 35 35 31 28 29 31 30 30 32 31 34 36 40 46 47 48 50 54 53 57 60 65 67 68 70 78 85 89 89 89 89 89 90 90 87 90 87
45 41 43 45 45 43 41 45 43 43 40 38 35 32 30 32 37 39 33 31 28 30 32 34 34 34 37 38 38 43 50 52 48 52 53 54 59 65 71 76 80 78 78 80 85 88 88 87 88 90 88 88 87 86
40 40 37 34 34 35 38 39 36 35 34 35 31 31 32 37 37 34 33 37 34 34 34 36 37 37 36 37 41 46 51 53 50 49 45 51 56 60 67 76 82 80 80 80 80 80 84 89 89 87 87 86 85 80
34 37 38 38 36 35 36 34 34 33 32 30 28 32 31 32 32 35 36 33 27 29 32 36 39 38 38 39 43 49 55 54 45 45 49 53 57 59 68 71 74 76 76 77 77 77 80 82 82 81 81 76 74 72
31 29 33 28 27 24 31 30 31 31 34 28 30 31 32 34 37 35 34 32 32 33 38 41 43 41 42 44 49 52 54 56 58 62 68 72 74 69 71 75 75 74 74 75 73 74 77 76 74 73 72 67 68 67
34 33 31 27 25 20 27 33 30 34 32 28 27 30 33 35 39 38 36 37 39 40 40 42 45 48 50 51 52 53 53 55 58 64 72 75 73 70 74 77 77 74 74 75 75 76 73 72 72 71 72 70 68 66
31 33 30 31 32 36 39 39 34 33 33 34 36 37 38 35 38 42 39 38 37 39 44 47 49 49 50 52 54 57 60 59 63 63 63 64 64 69 71 72 70 70 71 72 74 72 70 69 70 71 70 69 66 63
34 33 34 34 35 36 37 37 37 37 38 39 42 40 39 42 46 44 40 41 44 46 46 47 49 50 48 46 49 51 54 61 63 63 65 63 63 64 64 65 66 66 67 69 68 66 65 66 66 67 66 64 62 60
37 38 37 38 39 39 40 43 43 43 42 41 42 40 41 42 45 40 39 40 39 41 45 46 45 45 44 46 52 56 58 61 61 60 60 58 60 61 62 62 63 61 63 65 65 63 62 61 60 60 59 59 58 56
Wind_Direction
170 170 170 173 177 177 167 179 188 194 200 208 214 213 213 214 218 233 239 257 251 248 251 259 260 255 263 269 275 287 294 299 300 299 303 305 305 308 309 311 313 309 309 308 309 307 307 318 318 311 322 329 327 325
169 167 172 178 176 171 175 183 190 194 201 209 218 222 224 222 224 237 241 259 272 260 259 273 280 284 279 282 285 287 297 307 308 307 305 312 308 312 310 306 313 307 307 311 303 312 319 312 315 312 319 319 318 319
164 169 174 179 178 175 183 188 195 198 205 215 222 229 239 237 239 244 242 257 265 257 267 270 271 285 303 294 296 291 293 305 307 315 313 311 306 314 307 306 309 311 310 309 311 312 307 309 306 314 313 314 320 321
166 171 175 179 175 185 189 193 200 204 212 223 234 242 248 252 253 253 253 267 274 270 267 268 287 287 298 303 301 306 309 313 318 314 308 308 306 310 309 311 308 314 317 311 306 307 309 310 309 310 312 316 322 327
170 173 179 181 184 191 194 199 204 209 218 229 244 255 264 271 307 326 288 291 287 275 272 273 285 296 302 307 312 315 313 307 305 304 305 304 309 310 311 309 306 309 307 304 304 311 311 315 318 316 313 314 319 323
173 176 184 187 194 195 199 204 209 216 226 236 249 256 260 258 262 270 268 288 301 292 286 280 291 293 302 310 311 310 310 307 305 305 304 307 311 308 306 306 313 312 310 310 309 314 312 315 318 318 316 319 323 325
163 175 186 195 198 200 206 211 217 224 235 247 260 272 270 276 278 275 277 282 287 296 288 286 287 295 302 305 304 305 310 308 306 305 302 305 307 308 305 303 312 311 311 312 314 317 315 317 318 317 320 322 328 335
161 174 185 198 203 207 211 217 224 232 242 253 267 277 302 324 301 285 294 299 299 300 296 287 291 296 305 299 299 308 305 307 309 306 309 306 309 307 304 310 314 316 316 315 313 315 315 318 323 321 325 331 333 334
173 177 187 200 209 214 219 223 230 239 249 257 264 272 275 278 277 282 285 298 312 299 288 290 288 292 306 304 307 311 311 303 310 303 305 308 304 302 311 315 317 320 319 319 319 318 320 319 320 324 329 331 331 330
146 178 207 214 217 222 223 227 233 243 255 263 266 268 269 275 282 286 290 288 289 288 292 289 297 294 305 305 305 308 311 305 301 305 316 305 303 309 314 314 314 317 318 321 318 318 324 328 332 334 336 339 336 332
96 110 206 218 221 225 227 231 237 249 262 265 265 268 277 283 287 285 283 283 286 287 293 294 293 295 308 300 301 307 307 311 304 307 307 309 310 320 324 327 331 331 333 333 336 339 341 339 339 343 340 335 333 332
56 41 18 245 232 234 237 240 248 256 267 268 273 283 282 282 282 282 281 287 289 288 296 301 304 304 306 310 304 307 304 308 304 318 310 310 319 329 334 338 343 347 348 348 349 351 353 355 350 340 334 331 330 331
33 30 25 10 330 301 284 276 279 255 260 272 276 275 277 278 275 278 275 283 288 297 300 303 304 308 311 311 310 310 305 303 316 309 310 315 325 335 341 346 348 354 355 355 355 355 352 346 342 337 332 331 331 330
7 11 6 358 349 335 312 278 272 268 271 273 272 271 274 281 283 282 284 289 295 298 300 304 305 308 312 312 312 310 312 315 309 308 311 321 328 331 337 341 346 346 349 349 347 343 340 337 335 334 332 331 330 329
346 347 343 338 330 323 311 300 296 290 284 281 286 281 283 291 295 297 298 301 302 304 305 306 308 308 308 308 311 312 311 308 312 312 320 325 331 336 338 340 341 341 342 342 339 337 336 335 333 331 331 330 330 330
290 306 318 318 317 316 310 307 304 301 297 293 293 293 295 294 296 300 304 305 305 306 311 310 309 309 304 307 308 306 307 307 313 319 326 332 336 344 344 340 339 339 337 337 336 334 332 331 330 329 330 330 330 330
327 298 307 315 310 310 310 310 310 304 298 293 293 300 299 302 301 305 308 309 313 309 304 308 303 303 312 308 307 313 310 314 323 328 331 337 334 338 340 337 336 336 336 335 334 332 330 329 328 328 327 329 330 331
321 310 316 319 318 316 314 313 312 307 298 300 294 296 302 306 302 304 309 312 309 308 308 305 312 306 305 304 307 313 321 323 323 322 325 329 330 333 336 334 332 331 330 329 329 329 329 328 328 328 330 330 329 328
324 315 309 310 312 316 313 315 315 307 305 310 315 315 315 315 319 320 321 324 325 326 318 314 309 308 307 312 314 315 317 321 323 327 333 337 338 337 335 333 331 331 330 332 333 333 333 333 332 331 329 329 326 325
315 321 310 304 304 312 312 313 319 318 308 312 317 316 318 318 325 325 326 328 325 322 318 315 314 321 323 326 329 331 334 339 336 332 332 335 337 340 340 339 339 339 338 337 337 336 333 331 331 329 327 326 325 324
321 314 316 321 310 318 315 313 314 318 321 315 319 317 315 320 319 319 321 328 322 321 318 325 326 331 342 345 344 341 337 335 331 330 329 332 339 342 341 341 340 339 337 334 332 332 332 330 329 329 329 328 329 328
314 314 317 318 313 309 308 311 308 310 311 315 315 317 314 312 314 316 320 318 319 324 327 327 329 331 335 334 339 341 344 348 346 345 343 341 334 334 336 339 338 336 337 336 335 333 332 332 331 331 330 329 328 328
323 321 319 318 311 309 306 312 308 311 308 309 314 312 312 313 316 321 313 318 321 326 327 330 334 341 342 342 344 344 341 342 340 339 340 342 343 342 342 342 341 337 336 335 336 333 332 333 332 331 331 330 329 328
330 320 311 310 309 305 310 308 311 308 309 306 308 308 311 312 320 312 310 316 323 327 328 328 334 335 336 334 333 334 335 338 341 341 340 338 336 337 341 340 340 340 338 335 334 332 332 332 332 331 330 329 330 329
315 312 313 304 311 305 302 304 303 302 301 302 302 305 309 319 310 310 312 318 321 327 331 334 331 328 327 327 330 332 336 336 335 334 338 341 338 338 337 337 338 338 338 334 333 332 332 333 333 333 333 332 331 331
312 317 311 309 307 303 302 304 303 300 299 300 303 310 314 311 308 308 315 320 320 322 325 327 327 328 329 331 332 332 332 335 338 335 338 342 341 338 335 334 333 334 339 337 335 334 334 335 335 334 334 334 333 332
321 321 328 325 319 316 313 313 311 308 303 300 306 307 307 304 307 314 316 312 313 318 329 336 332 330 332 334 335 336 337 338 338 338 343 344 344 344 341 337 334 335 337 337 337 336 335 334 334 335 335 336 337 338
334 328 328 329 321 316 315 316 315 312 309 309 311 307 312 311 317 314 316 329 341 343 345 343 340 339 340 340 339 337 337 340 343 343 341 341 342 342 342 340 339 339 339 339 339 339 338 338 337 338 338 339 342 345
216 229 239 199 175 42 333 325 316 310 300 316 314 314 315 319 320 323 329 336 338 336 332 332 335 340 339 339 339 339 340 340 337 332 331 331 332 335 339 340 340 341 342 342 343 343 342 343 343 343 344 346 346 346
309 269 325 332 330 318 344 338 351 335 340 349 350 342 335 332 332 336 339 337 334 334 336 337 336 333 331 332 333 336 341 341 339 335 331 331 332 335 336 337 338 340 342 341 342 343 346 347 348 349 349 349 349 350
351 334 355 351 344 333 331 334 343 345 340 341 342 336 332 337 338 341 343 343 343 339 335 334 335 337 336 335 334 333 332 336 338 338 338 336 337 336 337 338 341 342 342 343 343 345 347 349 351 352 353 354 356 358
342 345 342 341 338 340 341 340 337 334 333 331 329 335 335 332 327 333 340 340 338 337 338 338 336 335 338 341 342 342 340 337 337 339 338 338 339 341 342 343 343 345 345 345 347 349 350 351 352 355 358 1 3 5
339 337 336 333 332 332 334 332 332 330 331 331 332 335 335 335 332 340 347 348 345 343 341 342 342 344 344 344 342 341 341 340 341 341 342 344 344 344 344 345 346 347 348 348 349 351 352 354 357 0 4 6 9 11